AZUR (GRS A)

Satellite information

Favourite Embed

Satellite Type and Status

PAYLOADIN ORBIT

Key statistics

Satellite AZUR (GRS A) at a glance.

Uptime

20490

Days in orbit

Revolutions

≈ 15.2

Per day

Orbit

SSO

Sun Synchronous Orbit

Inclination

102.7

Latest

Satellite identification and parameters

Extended collection of information and parameters for AZUR (GRS A).

Object identification

Identified? True

Debris? False

Object name: AZUR (GRS A)

International designator: 1969-097A

Object number (NORAD): 4221

Object ID (CCSDS): 4221

Country: GERMANY (GER)

Current information (Y/N): Y

RCS size: MEDIUM

Orbital parameters

Period: 94.915 minutes

Inclination: 102.6758 deg

SMA: 6892.624 km

Apoapsis: 704.905 km

Periapsis: 324.074 km

RAAN: 355.859 deg

Eccentricy: 0.02762599

Argument of periapsis: 19.736 deg

Mean anomaly: 341.4297 deg

Mean motion: 15.17140668 rev/day

Mean motion (dot): 0.00064398 rev/day2

B* drag term: 0.0011666701 1/REarth

Two-line elements (TLE)

Creation date: Dec. 12, 2025, 10:14 a.m.

Reference frame: TEME

Reference center: EARTH

Epoch: Dec. 12, 2025, 7:15 a.m. UTC

TLE line 0: 0 AZUR (GRS A)

TLE line 1: 1 04221U 69097A 25346.30273349 .00064398 00000-0 11667-2 0 9994

TLE line 2: 2 04221 102.6758 355.8590 0276260 19.7360 341.4297 15.17140668696914

Live tracking on map

Real-time ground track for satellite AZUR (GRS A).

In-orbit conjunctions

A list of the most updated potential collisions computed for object AZUR (GRS A).

Target Orbit TCA Probability of collision Miss distance Type
COSMOS 1275 DEB LEO 2025-08-14 15:41:15 0.0001655216 685.0 (m) DEBRIS
SL-14 R/B LEO 2025-08-10 19:28:38 0.0007279729 773.0 (m) ROCKET BODY
DMSP 5D-2 F9 (USA 29) SSO 2025-05-14 16:41:42 0.0002515886 144.0 (m) PAYLOAD
COSMOS 2251 DEB LEO 2025-03-13 10:57:10 0.0001355741 520.0 (m) DEBRIS
METEOR 1-27 LEO 2025-01-10 00:35:42 0.003185231 407.0 (m) PAYLOAD

Associated space launch

NASA-GSFC and BMWF (German scientific research ministry) joint spacecraft designed to acquire data about the terrestrial radiation belt.

AZUR (GRS A) was lifted into orbit during the mission ‘Scout B | Azur’, on board a Scout B space rocket.

The launch took place on Nov. 8, 1969, 1:52 a.m. from Space Launch Complex 5.

For more information about the launch, click the button.

Launch to space Scout B | Azur
Scout B | Azur

Agency: N/A

Status: Launch Successful

Launch date: Nov. 8, 1969, 1:52 a.m. UTC

Rocket: Scout B

Launch pad: Space Launch Complex 5

Location: Vandenberg SFB, CA, USA

...

Latest news about this satellite

There are no fresh news available about this satellite. Check back as we update our databases every day.


Newsletter sign-up

Weekly statistics, charts and insights to help you stay on top of the space industry.